Chillicothe, MO

2:08 PM CST on November 15, 2019 (GMT -0600)
Chillicothe

Weather History for KCDJ - September, 2019

Change the Weather History Date:

Monday, September 30, 2019

  Actual Average (KIRK) Record (KIRK)
Temperature  
Mean Temperature 80 °F -  
Max Temperature 87 °F 73 °F 90 °F (1952)
Min Temperature 73 °F 49 °F 31 °F (1924)
Cooling Degree Days 15    
Growing Degree Days 30 (Base 50)    
Moisture  
Dew Point 70 °F    
Average Humidity 76    
Maximum Humidity 87    
Minimum Humidity 59    
Precipitation  
Precipitation 0.00 in - - ()
Sea Level Pressure  
Sea Level Pressure 29.92 in    
Wind  
Wind Speed 7 mph (South)    
Max Wind Speed 16 mph    
Max Gust Speed 28 mph    
Averages and records for this station are not official NWS values.
T = Trace of Precipitation, MM = Missing Value Source: NWS Daily Summary

Daily Weather History Graph

Daily Weather History Graph

Search for Another Location

Airport or City:

Astronomy

Sep. 30, 2019 Rise Set
Actual Time 7:09 AM CDT 6:58 PM CDT
Civil Twilight 6:42 AM CDT 7:25 PM CDT
Nautical Twilight 6:11 AM CDT 7:56 PM CDT
Astronomical Twilight 5:39 AM CDT 8:28 PM CDT
Moon 9:14 AM CDT (9/30) 8:35 PM CDT (9/30)
Length of Visible Light 12h 43m
Length of Day
11h 49m
Waxing Crescent, 6% of the Moon is Illuminated
Sep 30
Waxing Crescent
Oct 5
First Quarter
Oct 13
Full
Oct 21
Last Quarter
Oct 27
New

Hourly Weather History & Observations

Time (CDT) Temp. Heat Index Dew Point Humidity Pressure Visibility Wind Dir Wind Speed Gust Speed Precip Events Conditions
12:52 AM 75.9 °F - 71.1 °F 85% 29.96 in - SSE 4.6 mph - N/A   Unknown
1:52 AM 75.9 °F - 71.1 °F 85% 29.95 in - SSE 5.8 mph - N/A   Unknown
2:52 AM 75.0 °F - 70.0 °F 84% 29.96 in - SSE 4.6 mph - N/A   Unknown
3:52 AM 73.9 °F - 70.0 °F 87% 29.95 in - SSE 5.8 mph - N/A   Unknown
4:52 AM 73.9 °F - 70.0 °F 87% 29.95 in - South 4.6 mph - N/A   Unknown
5:52 AM 73.0 °F - 69.1 °F 87% 29.95 in - South 5.8 mph - N/A   Unknown
6:52 AM 73.9 °F - 69.1 °F 85% 29.95 in - South 4.6 mph - N/A   Unknown
7:52 AM 73.9 °F - 69.1 °F 85% 29.96 in - South 6.9 mph - N/A   Unknown
8:52 AM 75.9 °F - 69.1 °F 79% 29.95 in - South 9.2 mph - N/A   Unknown
9:52 AM 78.1 °F - 70.0 °F 76% 29.95 in - SSW 10.4 mph 19.6 mph N/A   Unknown
10:52 AM 78.1 °F - 69.1 °F 74% 29.95 in - SSW 12.7 mph 21.9 mph N/A   Unknown
11:52 AM 80.1 °F 83.2 °F 70.0 °F 71% 29.94 in - South 16.1 mph 23.0 mph N/A   Unknown
12:52 PM 84.0 °F 89.0 °F 71.1 °F 65% 29.92 in - South 13.8 mph 25.3 mph N/A   Unknown
1:52 PM 84.0 °F 88.4 °F 70.0 °F 63% 29.90 in - SSW 12.7 mph 25.3 mph N/A   Unknown
4:52 PM 87.1 °F 92.8 °F 71.1 °F 59% 29.86 in - South 13.8 mph 27.6 mph N/A   Unknown
5:52 PM 84.0 °F 89.0 °F 71.1 °F 65% 29.88 in - South 8.1 mph - N/A   Unknown
6:52 PM 82.0 °F 85.9 °F 70.0 °F 67% 29.86 in - South 8.1 mph - N/A   Unknown
7:52 PM 79.0 °F - 69.1 °F 72% 29.88 in - South 5.8 mph - N/A   Unknown
8:52 PM 78.1 °F - 68.0 °F 71% 29.88 in - South 6.9 mph - N/A   Unknown
9:52 PM 77.0 °F - 68.0 °F 74% 29.89 in - South 4.6 mph - N/A   Unknown
10:52 PM 78.1 °F - 68.0 °F 71% 29.90 in - South 8.1 mph - N/A   Unknown
11:52 PM 77.0 °F - 68.0 °F 74% 29.90 in - South 4.6 mph - N/A   Unknown